Meridian, MS

10:14 AM CST on December 10, 2019 (GMT -0600)
Key

Weather History for KMEI - October, 2019

Change the Weather History Date:

Saturday, October 26, 2019

  Actual Average Record
Temperature  
Mean Temperature 66 °F 61 °F  
Max Temperature 78 °F 74 °F 89 °F (2010)
Min Temperature 55 °F 47 °F 28 °F (1955)
Degree Days  
Heating Degree Days 0 6  
Month to date heating degree days 45 84  
Since 1 July heating degree days 45 91  
Cooling Degree Days 2 2  
Month to date cooling degree days 205 84  
Year to date cooling degree days 2837 2007  
Growing Degree Days 16 (Base 50)    
Moisture  
Dew Point 65 °F    
Average Humidity 82    
Maximum Humidity 93    
Minimum Humidity 65    
Precipitation  
Precipitation 0.39 in 0.13 in 3.94 in (2015)
Month to date precipitation 10.08 3.12  
Year to date precipitation 53.26 45.51  
Sea Level Pressure  
Sea Level Pressure 29.74 in    
Wind  
Wind Speed 12 mph ()    
Max Wind Speed 37 mph    
Max Gust Speed 48 mph    
Visibility 9.2 miles    
Events Rain    
T = Trace of Precipitation, MM = Missing Value Source: Averaged Metar Reports

Daily Weather History Graph

Daily Weather History Graph

Search for Another Location

Airport or City:

Astronomy

Oct. 26, 2019 Rise Set
Actual Time 7:06 AM CDT 6:10 PM CDT
Civil Twilight 6:41 AM CDT 6:35 PM CDT
Nautical Twilight 6:13 AM CDT 7:04 PM CDT
Astronomical Twilight 5:44 AM CDT 7:32 PM CDT
Moon 5:13 AM CDT (10/26) 5:37 PM CDT (10/26)
Length of Visible Light 11h 53m
Length of Day
11h 03m
Waning Crescent, 3% of the Moon is Illuminated
Oct 26
Waning Crescent
Oct 27
New
Nov 4
First Quarter
Nov 12
Full
Nov 19
Last Quarter

Hourly Weather History & Observations

Time (CDT) Temp. Dew Point Humidity Pressure Visibility Wind Dir Wind Speed Gust Speed Precip Events Conditions
12:05 AM 66.0 °F 64.0 °F 93% 29.86 in 8.0 mi Calm Calm - N/A   Overcast
1:58 AM 70.0 °F 66.9 °F 90% 29.80 in 10.0 mi ESE 6.9 mph - 0.10 in   Overcast
2:20 AM 70.0 °F 68.0 °F 93% 29.79 in 10.0 mi SE 4.6 mph - N/A   Overcast
3:25 AM 73.9 °F 71.1 °F 91% 29.76 in 10.0 mi SE 13.8 mph - 0.00 in   Overcast
3:42 AM 75.0 °F 72.0 °F 90% 29.75 in 10.0 mi SSE 12.7 mph - 0.00 in Rain Light Rain
3:54 AM 75.2 °F 71.6 °F 89% 29.74 in 10.0 mi SE 16.1 mph 21.9 mph 0.00 in Rain Light Rain
3:58 AM 75.9 °F 72.0 °F 87% 29.73 in 10.0 mi SSE 12.7 mph 21.9 mph 0.00 in Rain Light Rain
4:58 AM 75.9 °F 72.0 °F 87% 29.70 in 10.0 mi SE 16.1 mph 29.9 mph 0.01 in Rain Light Rain
5:19 AM 75.9 °F 72.0 °F 87% 29.69 in 10.0 mi SE 15.0 mph 24.2 mph 0.01 in Rain Light Rain
5:58 AM 75.9 °F 72.0 °F 87% 29.64 in 10.0 mi SE 25.3 mph 33.4 mph 0.03 in Rain Light Rain
6:55 AM 75.2 °F 71.6 °F 89% 29.67 in 9.0 mi SE 25.3 mph 36.8 mph 0.02 in Rain Rain
6:56 AM 75.9 °F 72.0 °F 87% 29.67 in 8.0 mi SE 26.5 mph 38.0 mph 0.03 in Rain Rain
7:58 AM 75.9 °F 72.0 °F 87% 29.65 in 8.0 mi ESE 19.6 mph 28.8 mph 0.10 in Rain Light Rain
8:10 AM 75.9 °F 72.0 °F 87% 29.66 in 5.0 mi SE 17.3 mph 27.6 mph 0.01 in Rain Rain
8:24 AM 75.9 °F 72.0 °F 87% 29.67 in 2.5 mi SE 19.6 mph 28.8 mph 0.10 in Rain Heavy Rain
8:32 AM 77.0 °F 71.1 °F 82% 29.65 in 8.0 mi SE 24.2 mph 36.8 mph 0.10 in Rain Light Rain
8:43 AM 77.0 °F 71.1 °F 82% 29.64 in 10.0 mi SE 27.6 mph 39.1 mph 0.10 in Rain Light Rain
8:58 AM 77.0 °F 71.1 °F 82% 29.64 in 10.0 mi SE 21.9 mph 40.3 mph 0.10 in   Overcast
9:44 AM 75.9 °F 72.0 °F 87% 29.65 in 4.0 mi SSE 20.7 mph 41.4 mph 0.00 in Rain Light Rain
9:58 AM 75.9 °F 72.0 °F 87% 29.67 in 2.0 mi South 34.5 mph 46.0 mph 0.01 in Rain Light Rain
10:10 AM 75.0 °F 70.0 °F 84% 29.69 in 9.0 mi SSW 23.0 mph 38.0 mph 0.01 in Rain Light Rain
10:19 AM 75.9 °F 70.0 °F 82% 29.69 in 10.0 mi SSW 16.1 mph 32.2 mph 0.01 in   Overcast
10:42 AM 75.0 °F 70.0 °F 84% 29.70 in 10.0 mi SSW 17.3 mph - 0.01 in   Overcast
10:58 AM 75.0 °F 70.0 °F 84% 29.70 in 10.0 mi SSW 15.0 mph 26.5 mph 0.01 in   Overcast
11:05 AM 75.0 °F 69.1 °F 82% 29.71 in 10.0 mi SSW 18.4 mph 28.8 mph N/A   Overcast
11:40 AM 73.0 °F 68.0 °F 84% 29.73 in 10.0 mi SSW 15.0 mph 25.3 mph 0.00 in Rain Light Rain
11:58 AM 72.0 °F 68.0 °F 87% 29.73 in 9.0 mi SSW 11.5 mph - 0.00 in   Overcast
12:35 PM 73.0 °F 66.9 °F 81% 29.72 in 10.0 mi SSW 10.4 mph - N/A   Overcast
12:58 PM 73.0 °F 66.0 °F 79% 29.71 in 10.0 mi SW 10.4 mph - N/A   Overcast
1:58 PM 69.1 °F 62.1 °F 78% 29.72 in 10.0 mi SW 12.7 mph 20.7 mph N/A   Overcast
2:31 PM 69.1 °F 62.1 °F 78% 29.74 in 10.0 mi SW 11.5 mph - N/A   Mostly Cloudy
2:40 PM 69.1 °F 61.0 °F 75% 29.74 in 10.0 mi WSW 11.5 mph 20.7 mph N/A   Mostly Cloudy
2:58 PM 69.1 °F 60.1 °F 73% 29.74 in 10.0 mi SW 12.7 mph - N/A   Mostly Cloudy
3:12 PM 70.0 °F 61.0 °F 73% 29.75 in 10.0 mi SW 11.5 mph - N/A   Mostly Cloudy
3:33 PM 69.1 °F 60.1 °F 73% 29.75 in 10.0 mi West 9.2 mph - N/A   Mostly Cloudy
3:51 PM 70.0 °F 59.0 °F 68% 29.76 in 10.0 mi WSW 12.7 mph - N/A   Mostly Cloudy
3:58 PM 70.0 °F 57.9 °F 65% 29.75 in 10.0 mi WSW 11.5 mph - N/A   Scattered Clouds
4:58 PM 70.0 °F 57.9 °F 65% 29.77 in 10.0 mi West 8.1 mph - N/A   Mostly Cloudy
5:58 PM 66.9 °F 57.0 °F 70% 29.79 in 10.0 mi WNW 4.6 mph - N/A   Mostly Cloudy
6:24 PM 66.0 °F 57.9 °F 75% 29.81 in 10.0 mi West 8.1 mph - N/A   Mostly Cloudy
6:36 PM 64.9 °F 57.0 °F 75% 29.82 in 10.0 mi West 10.4 mph - N/A   Mostly Cloudy
6:58 PM 63.0 °F 54.0 °F 72% 29.82 in 10.0 mi WNW 5.8 mph - N/A   Scattered Clouds
7:58 PM 61.0 °F 55.9 °F 83% 29.84 in 10.0 mi West 3.5 mph - N/A   Clear
8:58 PM 59.0 °F 55.0 °F 87% 29.86 in 10.0 mi SSW 4.6 mph - N/A   Clear
9:58 PM 57.9 °F 54.0 °F 87% 29.88 in 10.0 mi West 3.5 mph - N/A   Clear
10:58 PM 55.9 °F 53.1 °F 90% 29.90 in 10.0 mi SSW 3.5 mph - N/A   Clear
11:48 PM 57.0 °F 53.1 °F 87% 29.92 in 10.0 mi Calm Calm - N/A   Mostly Cloudy
11:58 PM 57.0 °F 53.1 °F 87% 29.91 in 10.0 mi WNW 3.5 mph - N/A   Overcast